Back to catalog

STARLINK-38236

AliveCommunicationsSSO
NORAD 100312·PAYLOAD·🇺🇸 United States

Launched Aug 12, 2026 from Vandenberg Space Force Base

Loading…

Next Passes (next 24 hours)

TLE

FreshSource: Space-Track

Epoch: Sep 14, 2026, 15:51 UTC

1 A0312U 26184M   26257.66046375  .00012332  00000-0  34290-3 0  9998
2 A0312  97.2837 122.8345 0001547 105.5547 254.5868 15.36989408  6460

Track STARLINK-38236 in real time with AllMySat

Download on the App Store